Theta_e
318 317 316 316 317 317 317 317 317 318 318 318 318 318 319 319 319 319 320 320 320 320 320 321 321 321 321 320 320 320 319 313 309 309 306 307 318 323 334 332 337 337 340 337 335 330 322 320 319 322 324 329 325 324 331 333 333 331 325 321 315 316 314 318 320 323 328 327 331 333 336 334 329 337 340 345 339 339 338 337 341 340 339 341 342 345 345 346
317 317 316 316 316 317 317 317 317 317 318 318 318 318 318 319 319 319 319 319 319 319 320 320 321 321 321 321 321 321 318 312 307 306 307 321 328 330 335 333 342 341 344 333 330 325 320 315 316 319 319 317 321 320 331 323 334 325 322 320 315 316 319 324 326 331 329 329 333 334 337 335 333 339 339 333 333 334 331 333 335 334 337 340 342 343 343 344
317 317 317 316 316 317 317 317 317 317 317 317 317 317 318 318 318 318 318 318 319 319 320 320 321 321 322 321 321 321 313 310 309 308 313 335 331 333 336 337 344 342 334 330 326 323 318 316 316 318 315 313 316 314 323 319 329 327 321 313 316 322 322 326 332 332 335 334 332 333 336 337 338 339 341 333 331 333 328 328 331 331 332 336 339 341 342 342
317 317 316 316 316 317 317 317 317 317 317 317 317 317 317 317 317 317 318 318 318 319 320 320 321 322 322 322 322 315 314 307 305 312 317 342 336 336 338 342 342 338 313 326 321 317 316 317 318 318 315 313 314 318 315 319 322 324 323 317 319 322 321 324 332 334 336 335 333 334 337 335 339 341 341 334 329 328 330 332 331 331 333 335 338 339 340 341
316 317 317 316 316 316 317 317 317 316 316 316 317 317 317 317 317 317 317 318 318 319 319 320 321 322 323 323 320 312 306 300 307 316 326 343 338 337 340 345 342 325 311 310 310 312 315 314 317 319 315 310 315 315 314 319 325 321 322 325 325 323 318 325 335 338 336 337 334 335 332 332 342 339 339 333 325 325 331 333 335 336 336 336 337 338 339 340
316 316 316 316 316 316 316 316 316 316 316 316 316 317 317 317 317 316 317 317 318 318 319 320 321 322 323 320 311 311 302 293 308 311 348 343 341 340 341 347 348 317 310 310 308 307 311 312 316 314 313 312 313 311 314 318 322 312 317 320 322 323 320 329 336 337 337 334 333 332 335 338 335 333 339 334 331 337 339 337 337 338 339 339 340 339 337 338
316 316 316 316 316 316 316 316 315 316 315 316 316 316 316 316 316 316 316 317 317 318 319 320 321 323 323 320 311 309 299 299 308 312 349 346 343 340 347 349 337 310 309 307 306 307 306 311 315 314 313 313 313 313 316 318 320 317 313 319 320 319 318 327 335 337 335 333 332 337 339 334 334 328 339 333 342 343 341 339 338 339 340 340 338 338 337 338
315 315 316 316 315 315 315 315 315 315 316 315 316 316 316 316 316 316 317 317 317 318 319 320 321 323 321 311 306 296 298 300 308 314 352 347 339 342 345 321 312 310 308 306 305 305 306 308 313 313 310 312 312 314 317 316 318 315 315 319 320 321 322 324 336 335 335 333 337 336 333 333 335 333 336 334 339 342 342 340 338 339 338 338 337 337 337 337
315 315 315 315 315 315 315 315 315 315 315 315 315 315 315 315 315 316 317 317 317 318 319 320 321 323 323 308 297 299 299 306 313 326 344 336 333 338 334 325 314 310 308 305 305 305 308 305 308 315 310 312 314 313 314 314 310 317 317 319 318 318 318 324 334 335 335 335 336 332 331 334 336 339 334 338 340 340 342 339 336 337 336 336 336 337 336 336
315 315 315 315 315 315 315 315 315 315 315 316 315 315 315 315 315 316 317 317 318 318 319 321 322 323 315 308 303 297 304 313 332 344 328 327 334 332 327 326 315 312 310 307 304 305 308 306 311 313 313 313 314 311 314 315 312 316 312 312 314 315 312 325 332 334 335 335 335 330 330 332 337 334 326 339 339 340 339 336 335 335 335 335 336 336 337 336
315 315 315 314 315 315 315 315 316 316 316 315 315 315 315 315 315 315 316 317 318 318 320 321 323 321 310 309 298 295 311 319 332 335 327 329 332 326 322 325 318 313 312 308 306 305 308 309 312 314 314 309 311 309 312 312 315 309 309 307 306 304 313 319 333 333 334 332 333 332 330 332 334 332 326 335 338 339 335 333 334 334 334 335 335 335 336 336
314 314 315 315 315 315 315 315 315 315 315 315 315 314 314 315 315 315 316 317 317 319 320 321 323 318 311 306 299 300 313 319 334 335 332 329 326 325 324 328 319 315 313 309 308 307 307 310 311 312 308 312 306 309 308 312 311 310 308 304 303 319 324 329 330 332 333 330 334 333 327 325 328 325 332 336 337 337 334 332 333 333 334 334 335 335 335 336
314 315 314 314 315 314 315 315 315 315 315 314 314 314 314 314 314 315 316 316 317 319 321 321 324 317 310 299 304 314 316 317 333 336 333 329 328 328 326 329 322 318 316 313 310 309 308 307 311 309 310 308 306 304 310 311 310 309 307 303 300 317 317 328 331 332 330 332 334 331 310 316 324 328 333 336 335 335 332 331 333 333 333 334 334 334 335 336
314 314 314 314 314 314 315 315 315 315 314 314 314 314 314 314 314 315 316 316 318 319 320 323 320 314 305 298 306 313 316 316 326 332 330 335 327 328 331 331 328 321 319 313 312 311 309 308 310 310 311 307 305 310 309 307 305 302 303 299 296 306 303 325 329 330 326 332 333 328 309 309 321 328 332 335 336 333 330 331 332 332 333 334 334 334 334 335
314 314 314 314 314 314 315 315 314 314 314 314 313 313 313 312 314 316 317 318 318 320 322 326 316 310 304 306 315 319 333 318 320 323 331 327 319 324 327 330 327 321 318 314 311 312 311 310 310 306 304 311 311 308 303 298 298 298 300 295 291 300 295 320 329 329 323 329 333 325 311 311 316 327 332 335 335 333 330 331 331 332 333 333 334 334 334 334
314 314 314 314 314 314 314 314 314 314 314 313 312 312 313 314 316 318 319 319 320 321 324 313 313 311 305 301 311 328 318 314 313 319 330 328 320 316 326 327 324 320 316 315 318 314 311 310 304 304 306 311 308 305 298 298 297 295 297 293 295 292 296 318 326 330 329 328 330 324 310 314 316 328 332 334 334 333 330 330 331 331 332 333 333 334 334 334
314 314 313 313 314 314 314 313 314 314 313 312 312 311 314 319 321 322 321 322 321 323 317 311 315 314 299 310 315 312 308 308 309 308 318 329 323 318 326 322 319 317 315 315 313 311 309 306 309 310 309 304 304 300 297 293 291 295 293 295 294 294 302 311 314 328 328 328 323 327 319 316 318 327 331 333 333 333 330 330 331 331 332 333 334 333 333 334
314 313 313 313 314 314 314 314 313 313 312 311 310 310 312 322 325 322 320 320 321 321 319 316 314 303 299 304 302 305 312 309 307 306 309 318 322 324 322 316 316 316 314 310 309 306 308 303 308 299 301 304 302 298 296 291 295 293 294 294 295 293 296 302 313 321 326 327 322 324 322 321 320 327 329 332 333 332 330 330 331 331 331 332 333 333 333 333
314 313 313 313 314 314 314 313 313 312 311 310 310 316 319 319 314 315 313 315 307 303 299 303 300 294 292 302 307 308 306 311 306 304 303 309 309 314 314 314 317 313 306 305 306 306 308 305 307 302 300 298 299 300 298 298 297 295 293 293 292 293 293 294 301 306 326 322 320 320 319 320 321 324 328 331 333 331 331 331 331 331 331 331 332 332 333 333
314 314 313 313 313 314 313 313 312 311 310 306 304 304 301 297 293 297 306 310 303 301 305 308 305 303 305 304 304 309 309 306 303 303 303 307 308 303 303 309 309 308 304 301 303 304 308 300 299 299 300 300 300 300 302 300 297 297 296 295 296 295 295 297 297 299 327 322 320 320 321 321 321 322 327 329 331 331 330 329 329 330 331 331 331 332 332 333
314 314 314 313 313 313 313 313 312 310 309 305 302 298 294 296 291 290 295 297 303 306 303 304 308 306 303 306 307 302 300 300 300 301 304 319 302 303 298 305 304 302 303 303 304 309 308 299 300 301 302 302 301 300 299 299 299 299 297 297 295 295 294 297 300 301 320 321 318 321 319 319 321 321 326 329 329 328 329 328 329 329 331 331 331 331 332 333
314 313 313 313 313 313 313 312 311 310 307 301 302 297 298 302 303 303 299 293 298 300 303 303 306 307 308 307 310 308 302 297 298 298 300 305 301 299 297 301 300 301 302 302 303 302 300 299 301 303 304 303 302 300 299 300 298 298 298 295 295 294 296 298 299 300 312 321 313 315 317 318 320 321 325 328 328 330 332 331 330 329 330 330 331 331 332 333
314 313 313 313 313 312 312 311 309 308 304 303 301 299 303 306 306 304 301 296 294 299 299 299 299 300 301 302 303 306 299 295 296 297 300 303 299 298 299 299 299 300 300 301 299 297 297 299 302 303 303 302 302 300 299 299 298 296 294 294 293 293 296 292 296 297 311 317 307 307 310 310 314 319 323 328 329 329 332 332 331 331 330 330 331 332 332 332
314 314 313 313 312 312 311 309 308 304 302 303 301 303 308 307 306 304 299 293 292 297 298 299 300 299 298 300 301 301 297 296 296 296 309 302 298 298 300 299 298 300 298 298 299 298 297 300 303 304 302 302 301 301 299 297 297 296 296 294 294 295 295 296 295 297 298 307 308 307 305 306 313 315 318 324 330 330 330 332 331 332 332 333 333 333 333 333
314 314 314 313 311 311 309 308 302 303 304 302 303 306 306 308 308 305 298 292 291 293 301 300 304 301 301 303 303 300 295 297 295 299 308 302 299 300 299 301 299 297 298 298 298 297 297 300 303 302 300 300 300 299 298 299 295 295 296 298 298 296 297 296 296 296 292 291 302 303 294 294 304 314 317 321 325 326 329 328 329 330 331 332 331 331 333 335
314 314 314 313 312 310 308 300 300 302 302 302 305 307 308 307 308 306 294 287 286 291 297 294 300 299 301 298 299 296 297 297 298 298 309 302 311 299 299 297 300 297 297 298 297 296 298 302 301 300 299 298 298 298 298 300 294 294 296 300 299 298 297 297 296 295 289 289 300 307 296 289 300 313 317 321 322 323 326 327 328 330 331 331 331 332 332 333
314 314 313 312 311 308 302 298 302 303 300 304 306 308 308 308 310 303 296 284 281 293 293 298 296 296 301 298 297 297 285 289 297 303 301 307 302 304 297 293 297 297 301 301 298 295 300 300 300 299 298 297 296 295 298 300 295 293 297 298 300 299 297 297 296 294 291 297 301 303 299 296 296 304 318 321 321 321 323 324 327 329 330 331 332 333 333 334
314 313 312 311 309 308 304 304 303 300 302 305 308 308 307 308 307 300 291 279 280 297 292 293 297 302 300 298 298 294 294 296 294 298 302 302 304 298 295 292 295 293 295 298 290 296 299 297 298 297 297 295 295 297 299 301 297 294 298 298 297 299 298 297 295 292 291 293 289 299 306 297 294 302 314 321 318 319 321 323 325 327 329 330 332 333 334 335
313 313 312 311 309 307 307 304 302 301 303 307 308 307 309 307 299 293 286 279 291 291 302 294 303 299 296 298 294 294 295 297 292 297 299 301 302 299 294 293 293 292 294 300 295 294 295 298 298 299 297 294 297 299 300 300 297 299 299 300 297 297 297 295 292 292 294 291 287 295 300 295 290 295 312 318 318 318 320 323 325 327 328 330 331 332 334 335
313 312 311 309 307 305 304 305 302 306 308 308 307 307 308 301 296 290 282 278 294 286 296 295 295 293 294 291 292 293 294 294 296 297 298 296 299 299 297 297 294 293 294 292 293 292 294 304 304 297 295 298 299 301 301 300 302 298 300 299 298 295 293 296 293 291 289 288 285 290 296 296 287 290 308 311 315 319 322 324 326 327 329 330 331 332 333 334
312 310 309 308 303 304 304 298 302 307 308 307 308 305 301 295 290 280 278 285 294 291 294 293 292 295 292 289 288 293 293 292 293 294 294 296 296 297 294 295 294 290 287 288 290 291 293 293 298 298 301 297 298 297 299 302 302 301 297 292 291 294 292 293 288 289 287 281 286 290 292 295 289 292 304 313 316 316 318 321 324 326 328 329 330 331 333 334
309 308 309 306 307 308 299 305 304 307 308 309 307 298 294 289 285 281 283 298 284 289 289 289 293 291 291 292 289 290 290 292 294 292 289 290 291 291 290 286 287 283 286 285 286 290 293 292 294 295 312 296 292 293 291 296 297 297 294 294 290 283 286 285 288 286 284 284 290 290 290 291 289 302 310 315 317 318 319 320 322 325 327 329 330 331 332 333
308 307 306 307 309 304 306 306 309 309 310 308 301 295 287 282 278 284 286 289 286 293 290 295 291 291 290 288 288 292 294 290 292 293 293 293 290 289 292 291 291 286 283 289 286 288 288 290 292 293 292 298 294 290 291 292 294 294 293 290 287 282 282 279 281 281 282 288 290 290 292 289 290 301 315 315 318 319 319 320 321 321 323 328 330 332 332 333
307 306 303 308 307 308 310 312 312 311 310 306 294 290 288 282 282 297 289 288 289 293 293 291 291 290 290 287 289 290 289 293 291 291 292 290 290 286 289 292 293 290 288 286 285 284 282 285 289 291 288 294 293 292 291 292 291 295 294 295 289 284 282 281 280 282 285 286 289 291 289 287 299 303 315 318 318 318 319 320 320 321 321 322 329 332 333 332
307 305 304 307 309 311 311 312 311 312 304 295 294 287 281 280 286 284 285 288 290 292 291 292 289 287 287 288 290 292 291 288 293 292 290 289 286 286 286 288 292 291 289 284 289 286 284 283 290 293 293 293 292 295 295 291 291 291 293 295 290 291 289 284 283 283 284 287 287 291 289 295 305 315 318 319 318 317 318 318 319 318 319 321 323 330 332 333
306 309 309 308 312 311 312 313 311 309 298 296 292 286 282 286 284 289 288 295 293 290 290 289 290 286 284 286 289 290 293 289 289 288 287 289 289 288 290 290 290 292 287 284 287 281 287 284 290 292 293 294 293 296 295 296 287 292 294 289 291 295 293 290 295 290 288 286 287 288 293 300 304 300 310 317 315 314 315 316 316 316 317 318 319 320 325 332
307 308 304 307 306 309 314 314 313 303 299 296 289 284 289 290 293 291 298 292 293 293 288 283 285 284 283 284 285 288 290 290 289 287 284 288 286 290 290 290 293 293 292 288 285 290 283 284 287 290 290 294 296 295 294 295 295 290 289 289 295 296 293 289 285 283 281 281 284 291 294 293 294 292 303 314 312 312 313 313 315 315 316 316 316 318 320 322
303 307 311 305 307 309 314 313 307 299 296 296 290 297 291 289 294 293 294 293 292 292 287 284 287 288 285 283 285 287 290 286 287 286 285 288 284 292 290 289 293 294 294 293 287 289 287 282 287 290 290 292 295 293 292 296 297 291 292 297 291 288 289 288 287 282 282 282 285 290 292 294 293 293 299 310 310 310 311 312 312 313 314 314 315 317 319 322
303 297 297 304 309 309 310 308 302 298 296 290 287 291 295 293 295 293 294 294 294 289 286 287 284 289 286 283 287 289 289 284 287 285 282 286 282 291 291 291 291 295 295 294 289 290 289 282 284 288 290 291 292 292 284 288 294 295 294 290 293 291 289 286 289 285 287 281 283 286 289 289 296 296 299 312 311 310 311 311 311 312 313 314 315 315 317 318
303 295 296 307 310 308 308 306 301 297 293 288 289 290 293 291 293 295 296 295 292 289 287 287 288 285 289 288 287 286 289 289 287 286 286 288 286 292 292 294 291 293 294 294 291 292 287 288 280 286 291 290 286 289 286 287 285 288 289 286 288 288 292 290 289 288 287 282 281 284 283 289 294 301 303 313 312 312 311 310 311 312 313 314 315 315 316 317
300 294 297 308 310 306 303 304 296 291 288 290 292 293 294 292 293 294 296 296 294 296 291 290 288 286 288 286 289 289 287 288 288 285 286 288 287 283 293 293 293 292 293 292 291 291 287 285 283 284 285 285 287 291 291 291 290 288 287 285 286 284 285 284 285 289 288 283 279 283 283 291 296 305 311 317 315 314 313 311 311 311 312 312 313 314 316 316
292 290 296 309 308 304 302 293 292 291 288 288 288 291 293 301 293 294 295 295 294 292 296 292 291 291 289 289 288 287 286 287 288 286 289 286 291 289 293 294 293 293 290 287 289 293 289 287 283 281 284 285 289 292 294 293 292 291 290 287 289 288 286 282 281 286 286 288 291 288 285 288 299 308 316 318 318 316 314 312 311 312 312 312 313 314 315 316
298 295 304 307 308 302 298 290 296 294 288 291 295 294 294 293 291 294 293 294 292 293 292 292 291 290 292 290 290 289 288 287 288 287 289 290 290 292 293 294 295 295 291 290 291 290 302 284 283 283 283 287 290 292 294 294 291 288 290 291 289 286 286 286 284 288 285 285 284 283 284 287 299 311 314 316 318 316 315 313 311 311 312 313 312 313 313 314
298 298 301 308 308 303 296 287 287 289 291 292 292 292 294 294 293 292 292 293 292 291 290 291 292 293 291 293 292 289 291 284 290 288 287 291 289 294 293 294 297 296 295 293 290 293 284 285 281 278 279 282 283 286 288 290 291 287 286 289 289 289 289 289 288 289 284 286 286 281 281 287 296 310 312 312 313 312 311 312 311 309 311 312 313 313 313 314
296 298 302 303 306 301 292 289 288 287 291 289 290 289 290 292 293 293 292 291 293 291 290 290 292 292 291 293 291 292 292 288 286 290 289 291 291 295 294 294 297 295 299 303 305 297 288 286 280 277 277 276 278 278 278 281 285 287 288 288 289 288 287 286 283 284 280 288 286 282 284 289 295 308 308 308 308 308 309 310 311 310 310 310 311 312 312 313
293 288 294 296 298 297 294 296 292 289 289 289 288 290 289 288 292 294 293 293 293 292 292 294 292 292 291 291 290 290 290 292 288 287 288 288 289 292 292 293 296 297 302 306 304 295 286 287 283 279 276 276 279 282 287 292 285 283 286 286 287 288 288 287 285 282 281 283 284 286 287 288 299 305 304 305 306 305 306 308 308 308 309 311 311 312 312 312
294 290 291 287 294 294 290 293 292 291 288 291 284 289 287 289 290 292 294 290 294 292 291 291 291 289 289 289 288 288 289 289 290 288 288 289 290 292 293 293 293 302 305 301 302 290 285 283 285 285 284 284 285 287 287 291 285 286 285 286 286 287 287 287 284 283 286 282 281 289 289 289 297 302 304 304 305 305 306 306 307 308 309 309 310 311 314 312
289 294 294 296 288 286 286 290 292 293 294 291 289 290 289 287 288 287 291 295 294 293 289 291 291 291 291 289 288 286 287 286 287 286 288 289 288 290 290 292 291 298 300 293 297 289 282 280 286 285 285 286 286 287 288 289 287 287 286 285 286 287 287 286 286 288 286 283 282 287 288 291 297 300 303 304 305 305 305 307 308 309 310 310 310 309 309 310
295 296 297 300 289 291 288 295 295 292 293 295 292 290 288 287 287 289 289 290 290 290 289 284 287 289 291 290 288 285 285 281 284 287 286 287 288 287 285 288 292 292 293 291 291 291 284 282 286 285 283 285 286 287 288 286 287 287 287 287 287 287 286 287 287 288 287 286 287 288 289 295 298 300 303 305 307 306 307 308 309 308 308 309 309 309 309 309
294 294 293 296 292 292 294 290 291 291 289 294 287 290 288 288 288 289 291 289 285 288 292 288 288 290 291 289 287 286 288 287 287 285 289 287 285 286 286 286 286 290 292 290 292 291 285 285 292 284 281 283 285 289 286 287 287 285 285 286 287 287 287 287 287 288 292 289 288 288 289 295 301 302 304 305 307 306 305 304 305 307 308 308 308 308 309 309
300 297 298 289 289 292 295 289 289 288 285 288 285 291 293 289 289 290 290 293 290 289 290 289 289 289 290 289 289 290 291 290 289 291 291 287 286 290 286 287 290 289 288 288 289 290 286 283 285 280 278 280 283 285 286 287 287 284 284 286 287 286 286 288 286 290 288 287 291 291 289 292 298 301 304 303 304 302 301 302 302 304 306 307 307 307 309 310
298 300 296 289 288 294 288 289 287 286 286 289 293 291 292 290 291 290 288 293 294 294 292 291 290 288 287 287 288 290 292 292 291 291 291 290 291 292 293 292 290 290 287 288 289 286 285 282 282 279 276 278 282 285 286 284 281 283 286 290 293 293 294 295 296 299 298 296 291 288 286 296 298 302 299 300 301 302 301 301 301 302 304 305 305 306 307 309
Wind_Speed
18 19 18 17 18 18 18 18 18 19 19 19 19 19 19 19 18 18 18 17 17 17 17 16 14 11 9 7 5 5 2 1 1 2 2 13 8 10 10 7 11 15 9 10 10 11 5 5 4 2 4 4 1 3 2 3 2 1 2 2 3 3 1 3 2 4 1 6 6 8 6 5 6 3 3 3 7 4 4 6 4 6 9 10 14 16 16 14
19 19 19 19 18 18 18 18 18 19 19 19 19 18 18 18 19 18 18 18 18 17 16 16 15 11 8 6 5 4 1 2 4 7 18 7 9 13 10 6 12 14 12 12 14 8 12 5 5 6 7 4 0 1 6 2 4 3 1 0 4 4 5 2 1 2 5 2 8 6 4 5 4 6 4 5 5 5 7 5 9 11 12 14 15 17 16 15
19 19 19 19 19 19 18 19 18 18 18 19 19 19 18 18 18 19 18 18 17 16 16 14 14 11 8 6 4 2 1 3 3 9 14 19 14 12 12 9 13 15 10 11 8 11 12 12 8 7 3 3 2 3 5 2 6 5 1 3 5 4 4 3 2 4 1 9 9 8 4 3 5 2 2 5 8 6 8 9 8 13 16 16 16 16 15 14
19 19 20 19 19 19 19 19 19 19 18 19 19 19 19 19 18 18 18 18 17 17 15 14 13 11 8 6 3 2 1 2 2 2 4 5 18 14 13 11 16 11 8 6 7 6 6 9 8 5 3 2 3 2 5 3 3 2 3 5 4 2 2 3 2 2 2 9 9 7 4 4 5 3 3 10 8 3 4 8 13 15 17 18 17 17 15 15
19 19 18 20 20 20 19 20 19 19 19 19 19 19 19 19 19 18 18 18 18 17 16 13 12 10 8 2 1 1 1 1 1 2 1 11 17 15 14 12 16 8 6 8 8 7 8 9 7 2 2 2 2 1 3 4 4 0 8 5 6 4 4 4 1 4 6 5 7 6 9 6 5 3 3 12 10 9 9 8 11 16 18 19 19 17 14 15
20 19 19 20 20 20 20 20 21 20 20 20 19 19 19 18 19 19 18 18 17 16 15 13 12 9 7 3 2 1 0 2 2 2 8 15 14 15 12 11 14 9 9 9 6 6 11 4 7 3 2 2 5 7 2 5 4 5 4 7 7 8 8 3 3 6 9 6 8 9 5 8 6 4 3 8 2 1 6 8 12 14 17 17 18 17 16 16
20 20 20 20 20 20 21 21 21 20 20 20 20 20 20 19 20 18 18 18 17 17 15 13 10 9 2 3 0 0 1 7 2 5 14 15 14 14 12 12 13 9 7 8 6 6 5 10 5 4 4 2 2 4 4 2 5 6 6 2 7 3 8 4 4 7 5 11 9 5 8 8 8 8 4 8 1 2 6 7 13 13 14 16 16 16 17 16
21 21 20 20 20 21 21 21 21 21 21 20 20 20 21 20 20 19 18 18 17 17 15 12 9 6 1 0 0 1 1 6 8 4 15 16 14 15 12 8 10 8 7 8 10 7 7 11 11 4 2 8 2 7 2 3 3 6 8 6 7 6 8 5 5 5 6 4 6 9 10 9 6 2 6 6 3 3 6 7 13 14 14 13 15 15 15 14
21 21 21 21 21 21 22 22 22 21 21 21 21 21 22 22 21 20 19 18 17 15 15 10 8 5 1 0 1 2 4 7 4 6 13 13 11 10 10 6 5 9 5 5 6 7 8 5 4 5 4 5 2 3 2 2 4 7 13 9 8 7 7 3 6 7 8 5 7 9 6 3 2 6 4 5 4 5 6 8 15 15 15 15 15 14 14 14
21 21 21 22 22 22 23 22 22 22 22 21 22 22 23 22 21 20 19 19 17 14 12 10 6 6 1 1 0 0 2 2 2 8 13 12 10 9 5 7 8 8 7 4 4 7 8 5 6 5 2 2 2 3 2 3 4 3 3 6 8 9 6 4 10 7 7 6 10 10 5 3 1 5 3 4 6 6 7 10 14 16 16 14 14 12 12 14
21 21 21 22 22 23 24 24 23 23 22 22 23 24 23 22 21 22 20 19 17 15 11 8 6 4 1 1 1 4 2 5 2 4 12 13 12 10 8 9 8 7 7 5 6 6 4 6 4 2 3 2 2 2 2 3 1 5 6 5 6 7 4 3 6 9 7 4 4 8 4 3 1 2 3 6 6 8 10 12 15 15 15 13 14 12 11 11
22 22 23 23 22 24 24 24 24 24 23 23 24 23 23 23 23 21 20 18 17 14 11 6 5 3 1 0 4 7 4 4 2 3 9 15 11 13 11 11 10 10 10 9 6 5 4 3 4 1 2 0 1 1 2 3 2 5 3 5 6 4 5 2 8 7 6 4 6 8 7 1 3 5 2 9 7 8 10 13 15 14 14 13 13 11 11 11
23 23 23 24 24 25 25 24 25 26 25 26 24 23 24 24 23 20 18 16 12 9 7 6 5 2 1 2 9 8 2 1 5 7 3 2 4 4 2 3 8 9 10 9 8 6 6 2 2 2 1 1 1 1 2 4 4 2 1 3 5 4 3 2 3 5 2 4 10 8 4 8 10 6 2 10 9 9 9 12 13 12 13 12 13 10 11 11
24 24 24 25 25 25 25 26 26 26 27 27 25 24 24 24 21 20 17 14 13 9 4 7 5 3 1 5 7 3 5 3 5 5 6 3 8 2 3 3 1 1 1 2 2 4 6 3 3 0 1 1 1 2 5 3 2 2 1 2 1 1 3 1 2 7 3 3 11 1 0 6 5 6 4 8 11 13 12 12 13 12 12 12 13 10 11 12
23 25 26 25 26 26 26 26 26 25 26 27 24 25 25 24 20 17 13 9 8 8 6 8 2 3 1 7 6 9 6 4 5 4 9 7 5 3 4 5 4 2 1 1 2 5 5 3 1 1 1 0 1 2 3 2 3 2 0 2 3 2 3 1 3 9 5 3 9 1 3 5 3 8 8 9 10 11 12 12 13 13 12 13 12 11 11 12
22 22 25 25 26 27 27 24 23 26 27 28 24 27 24 19 14 9 6 5 8 10 6 3 1 2 1 6 1 3 2 1 4 7 7 9 8 4 5 6 4 3 3 3 1 2 4 4 2 3 2 2 0 0 3 3 2 4 1 2 0 1 1 1 1 6 4 4 4 6 3 4 1 7 9 10 11 11 11 11 11 13 13 13 12 11 10 10
20 21 24 25 24 25 27 24 25 26 23 24 28 22 17 11 7 4 9 11 8 5 3 2 2 1 1 3 3 2 0 3 2 3 5 5 8 6 11 6 3 4 3 1 1 2 3 4 1 1 1 2 2 1 1 2 3 1 2 1 1 1 1 2 2 5 3 10 6 8 2 2 2 3 10 11 12 10 10 12 11 11 12 12 11 11 11 12
23 21 24 25 26 27 27 23 25 25 21 24 23 14 9 8 13 14 13 7 4 2 1 0 2 0 7 4 2 1 1 4 3 1 6 4 7 8 6 3 4 7 5 0 2 3 3 2 3 5 1 2 2 3 6 6 6 2 0 0 1 2 1 1 3 4 5 5 5 6 6 9 1 3 8 12 12 10 11 12 13 11 11 12 12 11 12 12
25 25 24 26 25 27 26 25 23 23 20 21 18 10 3 5 1 3 7 3 2 1 1 1 2 2 2 1 5 6 3 4 2 4 1 8 2 3 3 4 12 10 3 2 1 5 2 2 2 2 7 6 6 6 7 1 4 3 3 1 2 2 1 1 3 2 11 6 5 5 9 11 7 5 6 10 13 13 9 9 9 10 10 11 12 12 11 12
27 23 24 24 23 24 27 24 23 21 20 12 7 4 2 2 2 0 1 1 2 5 1 4 5 2 6 5 3 5 5 2 3 0 3 2 9 4 2 3 2 4 4 3 4 4 4 6 9 12 7 4 3 7 8 5 5 4 2 2 0 1 3 4 3 2 8 4 8 10 12 10 9 7 9 12 11 10 10 12 12 12 11 11 11 12 13 13
23 24 23 21 20 23 23 22 21 20 19 4 2 1 3 2 2 2 5 6 5 4 5 4 10 7 5 2 1 3 5 3 2 1 1 3 5 9 2 2 3 2 3 5 7 1 4 5 9 3 5 6 6 6 3 2 1 2 1 0 3 2 3 3 2 1 3 6 7 9 7 9 10 5 8 9 12 14 13 13 13 14 14 12 13 13 14 11
23 23 21 20 20 21 21 20 20 19 15 2 1 3 2 1 2 3 0 4 4 5 6 5 1 4 4 5 3 2 2 2 3 2 2 2 3 7 2 3 3 6 0 2 4 3 5 11 3 5 4 3 2 3 3 4 3 2 2 1 2 4 4 7 4 3 4 6 7 3 7 11 11 8 8 12 15 13 14 15 18 17 15 13 13 13 11 9
27 23 21 21 20 20 19 19 19 17 4 2 2 1 1 2 1 4 3 1 5 2 2 2 3 4 5 4 1 6 2 2 1 1 2 3 2 4 5 3 4 4 2 3 8 5 4 6 4 2 4 3 1 2 3 1 1 3 2 2 5 3 1 3 0 3 1 5 3 3 7 7 4 5 11 12 14 12 13 12 10 11 15 16 17 14 12 12
26 26 23 21 21 19 20 19 18 4 0 0 1 1 0 2 2 1 3 2 3 5 2 4 3 2 5 0 2 5 4 2 2 2 2 4 6 2 4 4 3 3 6 3 6 7 5 1 2 5 4 4 3 2 3 2 3 1 4 3 2 2 3 5 4 3 1 6 3 1 3 5 3 5 5 8 10 9 10 9 8 9 10 10 8 9 11 13
25 26 25 22 20 20 20 18 2 2 3 0 3 4 3 3 1 2 2 3 1 3 2 0 0 3 2 1 1 2 2 0 4 1 1 7 3 3 1 2 4 3 3 4 5 3 4 5 4 5 3 3 3 4 4 5 3 1 4 8 6 3 4 4 3 5 7 6 1 5 2 3 4 3 5 4 7 11 7 10 12 11 11 10 12 13 12 11
25 24 23 20 22 19 20 2 1 2 3 1 1 1 3 3 2 1 3 2 1 2 1 1 0 1 1 1 1 2 2 0 1 2 1 3 5 4 1 0 2 5 2 5 5 3 5 2 4 4 4 3 4 4 3 6 4 1 5 9 8 6 4 2 1 1 1 1 3 1 4 5 3 3 4 5 10 10 5 11 11 11 11 12 12 12 13 13
22 23 20 18 18 15 4 0 3 3 0 0 1 5 4 3 1 2 1 2 3 2 0 1 1 0 0 0 1 2 2 2 2 2 2 4 0 1 6 3 1 1 3 2 2 3 2 0 3 1 3 4 3 5 4 8 6 2 3 5 9 7 5 5 4 4 5 0 2 2 3 1 4 5 3 5 7 8 9 10 12 13 13 14 13 13 13 13
24 22 17 15 12 7 3 4 7 1 1 2 5 6 6 4 1 3 2 1 1 1 1 1 0 1 0 1 4 1 2 0 2 2 1 2 2 2 3 5 5 5 2 4 6 5 4 3 2 2 1 4 6 4 4 9 6 4 3 8 6 8 8 5 5 5 2 1 6 2 0 1 2 4 2 6 6 7 13 13 14 15 15 15 15 14 14 14
20 19 16 12 12 7 2 2 1 2 1 4 7 5 5 2 3 3 2 2 3 1 3 1 2 0 2 1 2 1 1 1 2 1 4 3 7 2 1 3 3 4 1 5 7 2 1 4 7 6 6 6 5 7 6 10 5 5 5 2 3 3 2 4 5 4 1 1 4 3 3 1 4 6 2 1 3 9 13 16 15 14 15 15 14 14 14 13
20 19 15 10 5 3 2 1 4 7 4 5 6 6 2 2 2 1 1 2 1 2 1 1 1 1 1 2 1 3 1 2 2 1 6 2 9 6 2 1 2 2 2 4 2 7 1 5 5 5 4 5 5 6 8 9 9 2 5 3 2 3 2 3 4 2 2 1 6 4 4 4 1 4 3 0 3 7 9 8 9 9 11 14 15 15 13 13
20 16 14 7 1 2 4 2 8 5 5 4 5 3 2 5 2 3 3 1 2 3 2 2 1 3 2 3 2 2 3 3 5 3 5 6 11 8 8 1 8 3 4 3 0 4 4 2 2 0 1 2 1 1 3 8 5 4 1 2 2 0 4 1 1 3 2 3 6 2 5 5 3 2 6 6 11 9 6 7 9 11 13 13 10 11 13 13
20 17 11 2 4 1 3 3 0 1 3 4 2 4 2 2 5 6 0 1 2 5 2 3 1 1 2 1 5 6 1 5 6 6 5 3 9 10 7 3 3 5 2 1 3 3 1 4 3 4 2 8 3 1 4 3 5 6 4 3 5 2 1 2 1 3 4 5 1 1 4 4 3 3 3 6 9 12 11 10 5 3 5 5 7 10 11 11
21 18 11 4 5 2 6 4 3 3 4 2 3 3 4 6 4 3 2 5 1 1 3 1 2 2 1 5 2 4 8 6 4 6 3 5 6 3 3 7 2 2 5 1 1 1 3 2 5 7 4 4 1 2 2 2 2 7 7 7 5 2 2 3 1 0 2 6 3 1 2 1 2 0 6 6 9 10 10 10 11 11 8 4 7 6 7 9
21 16 3 4 8 7 5 4 3 5 4 2 5 7 7 9 1 4 3 1 3 3 3 3 3 4 8 4 4 0 9 6 5 4 5 2 7 7 7 8 12 6 4 1 2 1 4 0 3 6 2 5 3 2 1 0 4 7 4 11 7 5 4 4 3 6 7 8 2 3 1 4 6 1 3 8 6 9 10 11 10 12 11 12 5 10 11 10
21 6 2 1 2 7 10 7 3 2 1 2 12 7 9 1 1 3 4 3 2 3 2 5 3 5 6 5 5 5 3 2 3 9 11 9 6 3 6 8 8 3 0 3 1 2 1 2 3 3 4 1 3 3 1 2 2 1 2 5 7 8 4 2 7 6 4 3 2 0 1 1 4 8 5 5 9 14 14 15 16 16 15 14 12 3 9 12
8 1 1 2 2 5 3 2 2 2 3 8 11 10 7 1 2 2 2 2 3 2 6 4 8 8 3 6 3 7 9 5 4 4 4 6 5 7 6 2 6 7 5 3 1 2 0 2 3 9 4 1 5 2 2 1 3 3 5 5 3 1 7 5 1 1 3 6 3 1 1 5 4 4 10 11 15 17 16 17 16 15 14 13 12 12 11 8
6 5 4 6 7 8 1 1 2 1 3 10 9 5 1 0 1 3 4 4 6 5 1 4 6 3 3 4 3 8 4 4 4 5 4 2 4 8 6 4 1 5 2 1 3 0 2 1 2 6 8 4 6 2 3 3 1 2 2 4 1 2 4 3 3 3 3 5 2 4 3 5 5 3 11 12 16 16 16 16 14 13 15 16 12 13 11 12
4 2 1 5 9 8 1 1 1 6 5 12 9 8 0 2 3 2 4 4 2 3 6 3 1 4 2 3 7 7 7 5 7 4 2 5 3 2 3 4 6 6 7 2 2 1 1 3 3 0 3 8 8 3 3 5 7 3 5 0 4 2 2 2 5 1 4 3 2 2 0 2 4 5 9 13 15 15 14 13 15 18 16 13 15 15 17 14
1 2 4 9 11 9 2 1 8 7 11 9 3 4 2 0 2 4 6 4 0 0 7 4 2 5 2 3 1 6 8 5 1 3 3 3 4 4 4 1 4 10 8 5 4 2 2 2 2 4 5 5 5 8 6 9 10 5 2 5 3 3 2 4 2 3 5 3 4 1 4 1 3 4 8 7 9 10 12 12 13 14 13 13 12 13 14 14
4 2 4 8 13 7 4 3 10 10 8 7 1 3 2 1 3 7 11 6 5 5 2 3 5 4 7 5 2 3 5 7 6 3 5 4 2 1 7 5 1 9 5 5 3 1 1 0 2 6 9 4 7 6 3 6 5 8 10 7 7 3 2 1 2 3 1 5 4 6 3 2 5 5 6 6 9 10 11 11 10 10 12 12 14 14 14 15
1 4 2 8 14 10 3 13 10 7 5 1 2 1 4 2 4 6 9 11 3 5 5 4 3 5 0 2 8 4 3 5 5 4 3 3 4 2 4 5 3 4 4 3 8 6 2 4 2 4 8 7 4 1 2 8 9 7 4 6 3 4 3 4 2 1 2 3 3 6 4 1 5 7 8 7 8 10 10 10 9 11 13 13 12 14 15 13
4 4 5 10 11 5 12 9 5 1 4 6 5 3 2 5 5 8 6 5 6 4 3 4 5 5 4 5 1 3 3 4 4 3 3 4 3 1 5 9 5 2 2 2 2 4 2 1 5 6 1 2 1 3 3 2 5 10 9 6 4 1 3 3 5 2 3 2 3 4 8 2 4 6 9 9 9 10 11 11 11 11 11 13 14 16 14 16
5 2 4 6 10 5 13 7 3 5 3 2 2 4 3 3 2 4 5 7 4 4 4 7 4 2 5 3 3 3 3 5 3 3 1 1 3 3 6 8 7 3 3 3 1 2 3 5 3 2 3 3 3 4 3 8 2 3 7 8 7 6 3 1 1 1 4 5 3 2 5 4 2 6 9 10 10 10 9 10 12 12 11 13 15 15 17 16
0 2 6 8 11 3 11 5 3 4 3 3 4 2 5 2 5 7 5 5 3 4 3 2 4 5 3 3 3 2 1 4 4 3 3 1 3 5 8 9 8 6 4 1 0 2 1 2 4 3 1 2 5 3 0 2 5 4 2 6 4 4 5 1 2 2 6 2 0 3 5 3 3 4 9 10 10 12 12 12 12 12 12 12 13 14 13 15
1 2 1 7 11 9 6 2 6 5 3 3 4 7 5 3 3 1 3 4 3 2 1 3 2 2 4 2 4 4 7 3 3 2 2 1 1 3 7 9 8 5 5 7 4 1 7 1 1 3 4 3 3 3 3 6 5 4 1 6 6 8 10 6 2 4 5 1 2 3 3 2 1 3 9 10 11 10 11 11 11 10 11 13 13 13 12 14
3 2 6 6 8 8 5 2 4 4 2 1 6 2 2 2 3 5 4 2 3 3 5 0 2 3 4 6 7 7 9 9 5 0 2 2 3 2 3 8 9 5 10 13 7 3 3 2 4 3 4 5 2 1 1 0 3 3 6 5 6 4 5 3 3 5 2 1 3 2 3 0 3 8 8 9 9 10 11 11 12 12 13 12 12 12 13 12
2 5 2 3 5 8 5 6 3 3 1 2 3 1 5 2 1 3 5 2 4 2 1 4 1 2 2 6 3 5 4 3 6 5 3 1 2 1 4 5 8 12 14 8 9 4 4 5 2 5 5 3 3 1 1 2 1 1 3 4 5 5 4 4 3 2 2 4 1 1 3 3 4 6 8 8 6 7 8 10 11 11 11 13 13 11 13 13
4 1 0 1 3 1 5 5 6 6 4 4 2 1 1 3 4 1 4 2 1 3 2 3 6 4 1 3 3 4 1 3 3 2 2 1 1 6 3 5 6 9 7 3 4 4 4 4 1 3 1 1 0 0 1 2 0 2 3 3 4 3 3 2 0 2 3 1 4 2 2 2 2 5 6 6 5 6 7 8 9 8 9 11 12 14 14 15
4 0 0 1 2 1 1 0 2 6 8 4 2 3 3 4 4 1 1 4 4 4 3 2 3 4 3 1 3 3 1 2 2 0 1 0 1 2 3 3 2 7 5 4 4 1 4 2 1 1 2 2 2 2 1 3 1 2 3 4 5 4 5 3 3 3 4 3 4 3 1 6 2 3 5 5 4 5 4 4 5 9 11 11 12 13 14 15
3 1 1 4 5 3 3 3 2 5 6 3 3 2 1 2 4 5 2 3 2 3 2 5 2 4 4 4 3 5 2 4 3 1 1 2 1 0 0 1 2 4 4 3 1 2 4 0 3 1 2 0 1 3 1 0 2 3 4 4 5 4 4 4 2 3 1 1 2 4 3 3 2 2 3 4 4 3 4 7 8 7 9 12 12 12 13 14
1 1 0 2 5 3 3 4 3 4 3 6 5 3 2 4 2 1 1 0 2 0 1 1 1 2 3 5 5 2 2 4 4 2 4 4 2 2 1 2 1 1 4 3 3 3 6 1 2 2 3 0 2 1 3 3 1 1 3 2 2 1 1 2 1 1 1 0 2 2 2 3 1 4 1 2 4 6 7 6 7 6 9 10 10 12 13 13
1 0 2 1 3 3 2 1 1 3 4 1 1 2 1 2 2 0 1 1 2 2 1 3 1 7 2 5 2 0 3 5 4 4 4 2 3 4 3 2 2 1 1 1 0 2 0 3 1 1 2 1 2 2 5 2 3 3 2 1 2 3 1 2 0 4 2 2 2 2 2 1 2 2 3 4 4 4 5 5 5 6 7 8 10 11 12 13
Wind_Direction
347 346 347 347 345 344 343 343 341 341 340 339 339 337 334 334 333 331 329 327 326 325 324 324 323 322 325 325 318 307 99 3 281 186 205 242 194 210 168 209 177 189 203 120 122 119 113 121 118 122 105 116 250 140 173 220 271 233 221 214 252 231 230 230 199 192 195 137 172 177 187 132 132 162 121 114 72 68 79 69 69 69 82 100 117 124 134 140
346 344 344 344 344 343 342 341 340 338 338 337 336 334 332 331 330 330 328 326 326 324 325 323 323 321 321 326 319 317 11 245 252 234 231 216 212 197 190 197 167 170 145 130 149 146 130 147 155 130 124 145 271 156 141 226 166 228 265 184 247 196 241 170 243 160 135 198 158 170 187 166 132 146 183 129 125 116 98 78 99 93 101 109 121 133 140 146
346 344 342 342 342 341 340 339 338 336 336 334 333 332 330 329 328 327 327 324 323 323 323 324 323 323 321 320 320 65 77 290 259 258 256 233 214 186 182 185 154 155 157 148 161 151 155 163 149 129 138 98 180 171 177 244 157 230 253 243 249 218 255 267 207 208 313 138 150 167 182 161 136 136 195 139 135 135 138 131 120 127 131 133 137 140 146 148
346 344 342 340 339 339 338 336 335 334 333 332 330 329 326 326 325 324 322 320 318 318 320 321 321 320 318 321 315 119 19 275 272 245 258 184 178 171 175 166 151 140 95 112 135 126 93 113 137 129 115 85 203 161 166 213 163 195 192 216 239 226 279 296 210 212 108 148 146 154 137 129 169 115 174 131 121 189 176 170 152 149 143 143 147 148 151 151
346 343 340 339 338 336 335 334 332 332 330 330 328 325 324 322 323 321 319 316 316 316 316 317 319 314 314 332 91 126 15 14 221 235 237 135 154 161 163 158 149 136 122 132 96 95 121 131 139 152 109 159 162 149 238 208 223 129 230 245 273 321 305 290 106 120 127 120 128 137 160 161 106 127 172 158 163 193 184 166 152 148 146 148 151 154 152 155
344 342 340 337 335 333 333 332 331 329 328 327 325 323 320 319 319 317 314 313 312 311 312 316 315 312 310 117 98 99 105 77 284 297 132 136 141 148 156 152 144 128 113 129 127 126 117 116 132 142 147 133 183 179 236 192 183 260 277 254 245 251 258 255 161 149 137 140 146 162 158 113 154 170 191 188 165 55 122 143 148 150 152 152 149 152 156 160
342 339 338 337 333 332 332 330 329 327 326 325 323 321 318 316 315 313 310 309 308 309 310 313 314 304 286 133 102 33 138 272 318 249 134 135 133 136 144 136 129 126 121 114 126 141 147 143 147 169 146 144 206 204 242 163 189 229 265 298 283 239 240 221 179 160 157 148 165 136 126 157 156 166 184 186 63 104 130 132 145 147 146 149 154 161 159 161
340 337 337 335 333 331 330 329 327 326 324 322 321 318 316 313 312 308 307 306 306 304 307 308 310 306 119 59 288 339 33 251 244 252 146 129 130 140 118 104 126 124 131 148 151 153 141 150 172 147 157 167 215 174 228 221 194 220 255 253 261 256 248 228 161 164 148 135 123 131 157 184 172 136 136 192 131 122 135 127 141 146 149 155 158 159 157 158
338 335 336 333 332 332 329 328 325 324 322 321 319 317 314 311 309 306 303 303 301 301 302 306 305 317 193 87 123 4 263 234 232 161 139 131 138 130 127 119 144 133 137 128 156 153 140 194 152 174 203 178 201 138 236 157 280 205 234 255 271 274 270 202 158 167 155 140 142 135 173 153 154 116 176 152 146 139 133 129 144 149 155 162 166 163 162 163
336 335 335 332 332 330 328 326 324 323 320 318 317 315 312 308 305 304 302 299 296 297 295 291 290 251 106 113 44 147 259 243 19 138 138 132 123 127 98 125 145 131 126 169 132 145 179 181 164 188 119 165 175 215 189 149 247 186 254 254 259 267 285 204 165 169 154 148 159 146 153 154 154 157 211 145 150 139 136 143 149 156 162 164 168 165 167 164
335 334 333 331 330 328 327 325 323 321 318 316 316 315 310 306 303 301 299 296 292 291 289 282 261 158 268 192 135 216 291 69 2 120 135 137 132 144 165 153 153 149 136 148 179 171 159 140 193 125 331 211 106 273 150 221 286 305 272 305 292 299 259 181 138 149 137 128 165 125 102 68 176 337 228 155 150 160 150 152 156 161 165 166 169 165 169 169
334 333 332 330 329 327 326 323 322 319 317 316 316 314 309 304 301 298 294 291 290 285 278 263 227 138 329 197 207 222 314 121 110 103 140 142 163 180 167 162 165 162 153 166 196 186 174 179 157 157 182 115 192 298 272 257 296 270 314 321 306 342 21 105 147 163 144 116 140 118 80 314 208 219 189 147 144 164 154 158 161 165 167 167 171 163 170 172
333 333 331 330 328 326 324 322 321 319 317 316 315 312 307 301 298 293 288 289 282 275 260 225 166 112 44 315 228 230 246 54 121 121 118 92 86 55 103 164 173 165 176 160 181 187 193 171 113 184 263 57 193 150 284 321 295 302 301 197 334 1 358 131 108 147 119 145 146 155 150 234 222 209 140 144 150 160 156 164 166 166 169 170 175 168 171 171
333 332 331 329 328 326 323 322 320 319 318 317 315 311 304 300 295 287 281 267 262 260 248 174 128 128 108 243 272 226 231 193 120 132 163 156 103 87 96 120 132 104 68 92 105 159 177 194 59 158 196 146 289 304 346 324 21 191 253 59 223 28 286 169 135 162 106 145 167 123 226 283 222 194 144 158 155 165 169 171 169 169 171 173 179 174 172 176
332 331 330 329 327 326 323 322 321 319 319 319 315 311 306 301 291 280 271 258 232 224 183 126 81 113 71 268 264 277 181 88 148 197 172 144 123 82 179 144 163 148 146 148 130 155 171 121 19 33 270 277 25 13 344 356 354 340 50 293 320 153 286 302 115 175 150 155 194 132 307 252 252 173 153 163 162 168 171 174 174 172 174 177 180 178 177 180
331 329 328 327 327 325 323 323 321 321 322 321 317 315 309 299 288 271 246 188 174 169 149 86 190 130 76 301 247 33 102 135 247 188 189 150 162 174 146 120 114 133 137 235 142 147 153 133 161 194 320 12 50 180 357 19 337 351 120 251 280 76 292 66 221 182 62 105 205 199 211 316 328 149 153 167 164 174 172 176 179 176 178 179 183 181 180 177
328 327 328 326 325 325 324 323 322 323 324 321 324 319 317 304 278 142 126 128 131 144 129 123 138 168 112 235 292 324 226 253 178 83 156 204 158 130 118 116 125 136 148 7 118 81 140 142 201 133 347 209 162 103 63 2 314 311 16 173 230 128 159 181 318 171 116 145 197 236 255 237 321 188 153 173 171 171 182 183 184 182 182 184 185 184 181 185
327 327 327 326 326 325 325 322 322 323 327 327 326 317 307 43 91 96 84 82 106 119 218 165 153 106 286 318 331 224 299 298 344 127 147 177 140 140 134 148 101 117 125 77 62 139 172 167 134 191 26 183 127 135 154 216 184 209 316 112 347 349 131 190 155 217 139 172 189 218 248 263 358 150 173 175 179 181 189 190 187 185 183 185 188 190 187 188
327 329 327 327 325 325 325 324 322 323 329 332 313 325 353 290 302 85 92 132 96 28 32 259 121 146 162 202 293 301 268 215 241 149 158 124 177 124 68 95 121 122 140 110 234 134 152 81 84 132 221 187 190 166 168 208 156 164 156 164 140 89 282 153 240 232 170 173 211 186 215 243 222 179 181 180 187 188 187 186 194 194 190 187 190 194 193 193
327 325 327 325 322 323 324 322 322 323 333 343 352 5 348 23 1 356 343 74 209 204 197 189 201 279 321 266 267 268 279 6 150 255 134 186 125 150 120 112 69 72 112 161 146 203 150 154 183 205 195 167 169 173 188 197 148 115 99 106 153 150 283 286 287 234 191 151 215 208 222 228 237 189 190 188 185 192 181 186 192 198 194 191 191 195 197 197
323 325 324 322 320 321 320 320 320 321 332 314 272 70 72 333 48 303 318 268 236 252 246 219 191 202 229 299 285 19 19 315 49 318 163 116 108 134 229 70 90 93 183 168 142 239 115 176 224 166 146 171 195 187 171 120 86 155 108 322 309 135 264 238 218 283 186 172 239 227 228 240 238 206 196 184 186 199 192 188 195 197 197 196 194 193 197 198
323 323 323 320 321 319 318 318 320 321 326 181 259 89 163 97 219 241 123 317 317 250 230 248 268 273 293 266 231 155 111 339 337 312 298 128 152 150 269 97 134 163 201 117 78 137 174 209 177 166 187 122 100 150 165 167 171 113 185 164 334 274 238 274 266 283 203 175 264 177 219 241 237 212 194 190 195 199 199 195 195 189 193 198 199 197 190 179
324 323 321 322 320 318 318 316 318 320 325 14 39 107 70 280 307 269 160 265 275 270 205 224 219 253 287 268 247 116 103 196 204 294 208 96 126 167 136 94 148 155 126 134 158 137 190 270 233 196 124 143 195 131 133 115 93 136 88 95 218 243 28 303 307 22 110 173 218 197 203 256 273 207 197 202 198 201 203 205 200 196 194 197 199 193 186 187
324 326 325 324 322 321 319 319 309 305 23 36 210 157 295 316 303 31 132 234 296 311 204 215 171 190 238 338 209 121 138 262 119 287 251 126 143 181 107 144 131 118 191 157 144 165 187 230 177 149 147 157 204 167 137 140 244 234 160 163 192 229 229 177 263 338 180 255 238 109 348 309 225 181 214 213 200 198 203 200 203 206 214 208 199 197 194 192
323 325 327 322 324 323 318 315 7 14 313 39 236 245 269 327 4 297 93 343 13 294 217 33 134 243 240 339 70 160 238 68 220 224 240 112 111 83 210 172 111 194 176 173 121 137 265 267 138 114 142 144 168 242 203 145 218 324 220 194 205 178 217 276 324 3 12 338 306 145 15 303 300 266 212 173 183 209 195 197 202 203 204 196 199 201 198 200
323 323 324 323 325 329 310 330 350 16 350 184 113 325 302 329 1 208 104 79 338 266 337 219 248 198 74 249 76 128 80 298 217 238 177 206 140 136 113 94 120 205 159 136 170 187 196 250 134 169 159 164 169 208 218 152 165 106 268 192 185 188 199 203 305 36 340 172 314 78 149 271 324 251 205 190 195 196 186 200 202 203 203 202 204 200 197 196
321 322 323 324 330 339 0 28 321 293 28 298 310 322 324 310 7 105 49 348 44 297 110 237 83 262 231 302 116 102 73 250 304 32 36 331 66 7 127 215 44 39 149 143 62 259 136 30 145 108 158 166 182 232 218 145 134 221 252 179 174 178 192 222 195 183 231 207 302 67 118 214 317 300 233 187 184 196 208 207 202 201 204 205 204 201 198 197
320 322 322 323 329 357 217 317 351 8 253 290 335 319 315 325 96 49 84 66 320 272 29 297 226 265 63 287 64 103 198 240 73 306 37 325 107 11 98 194 168 177 166 80 163 261 156 188 155 190 163 188 216 208 181 158 143 212 237 150 161 174 196 190 163 204 246 32 296 320 77 45 278 275 310 152 175 210 215 211 209 203 203 207 203 202 201 198
318 320 323 324 325 319 191 170 110 250 242 312 306 309 318 39 90 108 136 97 259 25 213 63 277 82 333 4 30 30 2 26 133 266 318 24 25 175 81 215 148 143 19 147 186 267 284 172 207 175 164 220 222 227 171 162 151 249 179 113 116 117 103 149 182 179 286 91 271 246 186 137 288 294 7 101 224 229 225 219 214 205 204 204 202 202 201 198
319 321 324 324 320 101 78 132 232 241 298 295 299 302 323 58 38 41 22 60 14 351 307 257 30 250 53 84 344 2 55 345 73 45 38 84 347 33 16 150 125 96 142 20 126 220 208 317 162 104 190 219 220 230 180 173 182 141 141 172 200 47 52 37 70 107 74 294 254 226 202 140 292 308 323 350 294 302 281 248 225 215 213 208 204 200 197 197
319 321 323 329 176 208 140 318 246 231 247 282 295 329 73 39 118 95 83 256 8 260 357 4 330 356 72 113 106 342 78 4 3 46 24 5 17 40 8 38 28 65 36 10 348 322 354 4 101 266 221 327 148 269 223 202 173 169 160 120 83 334 19 55 341 39 156 273 261 249 165 138 156 328 344 329 323 330 323 273 257 237 221 211 203 199 198 197
323 320 319 261 218 263 169 280 190 218 294 301 5 45 74 285 10 61 85 318 53 320 47 313 314 86 77 57 69 2 29 34 359 47 58 19 66 50 16 83 341 110 230 17 216 335 38 55 303 325 306 56 353 45 325 76 123 130 106 103 154 258 78 250 68 200 188 196 239 117 151 65 87 180 265 319 352 2 9 6 342 280 268 258 229 209 200 198
324 322 316 197 190 249 249 283 345 325 333 340 69 58 60 92 53 324 316 335 86 30 310 216 301 11 117 69 54 46 38 71 328 38 80 34 76 50 70 50 307 146 176 257 75 97 250 285 11 335 9 25 80 127 242 54 119 132 154 157 143 145 156 170 260 247 321 283 255 60 333 96 201 168 350 4 6 6 9 13 18 20 355 249 208 209 211 209
322 325 19 182 185 222 253 264 283 341 335 40 75 46 70 59 351 318 302 305 274 329 341 349 331 52 47 89 346 143 59 21 45 9 35 135 48 15 344 14 23 1 71 111 95 199 120 355 355 17 356 339 47 81 191 172 167 187 137 155 174 141 156 184 181 163 186 198 257 295 85 197 127 278 296 28 9 13 19 21 18 18 11 351 244 189 197 198
318 315 156 152 239 241 244 254 260 255 29 64 61 66 75 42 270 329 314 316 303 318 315 349 49 44 12 36 344 35 122 86 56 57 46 55 3 21 353 336 355 57 360 79 320 69 165 185 274 271 246 20 14 306 152 127 70 267 162 67 120 217 134 153 198 146 172 146 38 226 201 41 116 164 80 40 18 25 22 22 19 16 10 5 4 294 208 199
349 359 170 314 311 327 179 234 171 159 70 69 68 47 68 88 305 336 266 318 282 330 321 360 42 53 24 21 348 21 11 102 358 80 35 63 67 29 329 319 3 1 29 94 288 111 7 25 315 320 345 12 360 316 20 122 145 207 108 176 194 132 102 93 67 43 99 73 177 266 348 344 307 318 12 14 19 20 18 18 19 14 8 12 7 355 334 266
16 338 27 323 351 346 67 175 127 64 49 78 80 69 216 210 277 245 294 312 268 297 33 73 350 45 12 24 3 351 324 49 33 80 22 6 23 3 347 304 312 1 50 149 29 99 144 219 304 28 343 321 352 262 202 61 174 89 125 219 292 125 118 120 157 338 71 140 208 36 42 336 34 203 351 1 20 16 15 12 12 16 16 14 0 352 336 320
352 354 218 359 344 327 88 172 360 31 75 75 69 92 298 54 327 321 292 313 352 356 64 75 26 79 36 88 18 356 318 83 327 49 91 4 119 312 334 337 313 20 335 345 124 318 82 58 318 123 244 280 325 38 6 344 26 100 155 74 132 142 202 307 103 144 138 159 139 63 8 66 43 317 338 9 13 3 4 4 11 16 15 10 4 351 350 339
9 67 25 348 341 8 347 63 63 50 65 61 23 87 351 138 312 6 322 293 161 60 59 5 146 10 105 58 165 26 25 78 11 50 83 350 68 8 42 308 305 338 345 7 62 314 35 136 306 302 359 302 18 34 26 318 326 27 26 33 1 95 106 118 193 177 118 194 100 235 47 17 339 333 332 8 22 5 359 4 13 13 11 12 7 2 356 351
22 42 1 334 349 344 350 68 48 41 56 69 7 60 250 26 324 339 358 22 21 33 62 31 13 105 46 67 83 104 27 50 58 26 86 334 130 305 23 1 339 313 339 8 97 244 313 67 71 292 321 41 25 6 38 346 357 350 29 5 4 357 251 75 29 62 180 162 177 137 52 14 325 333 346 21 27 10 6 1 3 9 13 12 14 12 5 3
16 93 292 340 346 339 351 42 41 29 62 323 55 41 9 18 341 344 356 12 68 51 85 64 29 70 272 50 33 10 85 34 30 62 61 38 40 346 6 3 317 314 352 10 41 9 52 11 114 320 24 46 135 282 68 55 54 62 62 63 301 357 49 108 157 4 61 93 185 121 141 57 340 4 360 18 38 15 6 2 354 11 16 15 15 18 16 9
65 42 317 330 341 348 68 54 2 88 81 51 32 341 10 15 15 349 356 356 59 49 19 87 47 68 32 47 125 19 95 50 9 76 25 96 2 118 300 335 308 274 71 48 306 299 130 145 93 49 66 117 164 41 21 35 60 74 59 28 346 95 95 81 135 233 36 19 85 124 113 90 0 1 12 15 34 22 10 358 358 1 9 15 18 17 19 21
25 93 252 306 353 53 76 56 341 36 47 316 278 27 354 42 19 309 26 358 34 25 31 44 2 72 17 74 26 68 62 80 17 63 122 356 48 360 287 326 328 26 88 356 33 303 71 46 32 7 314 309 280 239 33 24 32 6 24 18 16 22 322 190 173 168 109 348 59 4 67 157 13 28 23 18 26 27 17 8 360 3 3 13 17 19 21 18
173 7 338 340 349 59 76 94 60 30 55 1 57 67 358 81 26 7 29 358 46 358 58 18 359 49 84 13 69 52 320 93 26 76 39 20 54 320 2 6 356 35 34 305 95 284 70 330 109 80 16 348 329 349 356 340 40 48 12 342 349 346 14 101 101 34 79 337 217 111 141 149 34 30 46 28 28 27 16 11 8 4 2 8 12 15 18 23
94 295 305 316 359 45 96 163 120 102 66 67 54 32 351 28 1 63 24 23 358 59 70 31 55 343 40 18 66 57 37 112 123 347 116 25 287 319 356 14 0 45 25 29 37 309 83 354 77 113 129 138 188 235 265 322 343 315 11 341 353 18 4 15 32 351 86 252 93 101 134 224 270 42 50 39 30 22 12 10 10 11 4 9 7 9 9 20
26 96 313 352 9 28 54 54 102 127 93 55 52 8 48 18 327 2 44 38 73 25 67 65 344 44 45 53 49 35 34 31 79 88 55 1 339 337 1 343 27 9 20 27 28 78 108 63 83 125 143 161 188 196 280 275 354 32 325 355 341 352 9 72 105 72 86 236 99 192 111 107 57 45 45 42 36 28 14 7 11 10 8 9 10 11 16 13
126 64 2 348 331 38 35 25 25 56 88 150 75 348 15 1 276 347 25 76 8 44 71 58 333 65 2 64 88 61 357 48 12 73 18 38 285 260 309 27 9 11 14 20 4 86 66 67 27 87 86 159 176 147 269 340 64 309 359 321 333 352 6 51 80 149 166 74 345 185 142 74 53 42 45 43 38 34 20 9 7 10 10 10 6 5 13 18
65 262 116 215 117 313 31 4 15 57 28 72 86 69 354 24 23 59 329 59 292 14 97 349 33 46 96 138 126 92 358 44 28 66 332 346 4 345 21 353 43 344 12 8 3 96 122 104 324 75 11 37 125 286 23 39 336 289 293 293 304 309 347 37 205 172 120 138 191 241 165 104 61 27 50 63 48 54 34 12 7 1 9 10 7 12 14 18
114 212 226 321 77 281 161 315 28 66 47 35 90 50 40 44 32 2 141 326 21 354 58 97 349 338 10 47 97 125 130 69 350 316 161 349 46 342 18 339 333 9 27 20 14 85 87 42 187 110 95 45 8 22 40 58 319 320 271 262 254 274 264 235 244 214 174 213 225 233 103 116 94 355 41 68 82 70 55 21 5 15 15 11 14 13 17 17
360 30 5 3 85 89 6 34 47 42 58 346 80 336 105 11 29 351 3 70 17 5 32 71 356 28 17 46 87 91 154 157 165 150 251 115 348 51 133 168 263 328 33 29 339 343 101 105 118 96 79 360 307 345 5 264 220 290 281 274 283 288 300 274 255 289 195 278 264 230 156 146 132 2 19 46 79 77 63 39 28 15 13 16 15 12 11 12
180 171 157 95 43 332 3 20 45 57 51 355 61 341 56 356 43 267 16 273 96 339 24 131 143 50 21 57 53 95 208 163 159 144 181 149 128 217 120 281 153 16 354 12 17 330 64 204 49 75 82 332 296 315 289 274 278 242 307 337 318 319 327 339 110 286 120 173 16 62 127 181 282 348 359 46 75 63 52 38 30 17 16 17 18 14 7 4
75 275 87 100 85 335 45 343 18 60 33 259 99 329 77 334 269 316 53 351 31 21 204 143 168 99 20 52 38 258 214 183 195 203 183 188 131 83 77 129 141 138 128 76 323 54 53 115 84 72 79 245 254 278 277 339 56 31 8 346 345 359 344 320 280 76 82 152 101 162 234 185 245 328 4 10 46 74 73 48 36 23 18 16 17 12 5 0